Zurück zum Katalog

STARLINK-30864

AktivKommunikationVLEO
NORAD 58243·PAYLOAD·🇺🇸 United States

Gestartet Nov 8, 2023 von Cape Canaveral Space Force Station

Loading…

Nächste Überflüge (nächste 24 Stunden)

TLE

AktuellSource: CelesTrak SupGP

Epoche: Sep 15, 2026, 03:20 UTC

1 58243C 23171P   26258.13937500  .00009895  00000+0  35838-3 0  2585
2 58243  43.0011 295.3805 0001373 262.1108 245.0061 15.27575462    12

Verfolge STARLINK-30864 in Echtzeit mit AllMySat

Download on the App Store